Sturgis, MI

4:56 AM EST on February 20, 2018 (GMT -0500)
Kirsch Municipal

Weather History for KIRS - February, 2012

Change the Weather History Date:

Monday, February 27, 2012

  Actual Average (KHAI) Record (KHAI)
Temperature  
Mean Temperature 34 °F -  
Max Temperature 39 °F 40 °F 67 °F (1976)
Min Temperature 30 °F 20 °F -12 °F (2015)
Degree Days  
Heating Degree Days 30    
Moisture  
Dew Point 23 °F    
Average Humidity 61    
Maximum Humidity 75    
Minimum Humidity 48    
Precipitation  
Precipitation 0.00 in - - ()
Sea Level Pressure  
Sea Level Pressure 30.19 in    
Wind  
Wind Speed 11 mph (West)    
Max Wind Speed 23 mph    
Max Gust Speed 30 mph    
Visibility 10 miles    
Events      
Averages and records for this station are not official NWS values.
T = Trace of Precipitation, MM = Missing Value Source: NWS Daily Summary

Daily Weather History Graph

Daily Weather History Graph

Search for Another Location

Airport or City:

Trip Planner

Search our weather history database for the weather conditions in past years. The results will help you decide how hot, cold, wet, or windy it might be!

Date:

Astronomy

Feb. 27, 2012 Rise Set
Actual Time 7:20 AM EST 6:29 PM EST
Civil Twilight 6:52 AM EST 6:57 PM EST
Nautical Twilight 6:20 AM EST 7:29 PM EST
Astronomical Twilight 5:48 AM EST 8:01 PM EST
Moon 9:43 AM EST (2/27) No Moon Set
Length of Visible Light 12h 04m
Length of Day
11h 08m
Waxing Crescent, 29% of the Moon is Illuminated
Feb 27
Waxing Crescent
Feb 29
First Quarter
Mar 8
Full
Mar 14
Last Quarter
Mar 22
New

Hourly Weather History & Observations

Time (EST) Temp. Windchill Dew Point Humidity Pressure Visibility Wind Dir Wind Speed Gust Speed Precip Events Conditions
12:15 AM 37.4 °F 29.8 °F 23.0 °F 56% 30.05 in 10.0 mi SSW 11.5 mph - N/A   Clear
12:34 AM 39.2 °F 31.6 °F 23.0 °F 52% 30.05 in 10.0 mi SSW 12.7 mph 18.4 mph N/A   Clear
12:55 AM 39.2 °F 32.5 °F 23.0 °F 52% 30.05 in 10.0 mi SSW 10.4 mph 18.4 mph N/A   Clear
1:14 AM 37.4 °F 30.3 °F 24.8 °F 60% 30.05 in 10.0 mi SSW 10.4 mph - N/A   Clear
1:35 AM 37.4 °F 30.3 °F 24.8 °F 60% 30.05 in 10.0 mi SSW 10.4 mph - N/A   Scattered Clouds
1:55 AM 37.4 °F 30.8 °F 24.8 °F 60% 30.07 in 10.0 mi SW 9.2 mph - N/A   Mostly Cloudy
2:15 AM 37.4 °F 32.1 °F 24.8 °F 60% 30.08 in 10.0 mi WSW 6.9 mph - N/A   Scattered Clouds
2:35 AM 35.6 °F 29.9 °F 24.8 °F 65% 30.08 in 10.0 mi SW 6.9 mph - N/A   Clear
2:54 AM 35.6 °F 29.2 °F 24.8 °F 65% 30.08 in 10.0 mi WSW 8.1 mph - N/A   Clear
3:15 AM 37.4 °F 31.4 °F 24.8 °F 60% 30.09 in 10.0 mi WSW 8.1 mph - N/A   Clear
3:35 AM 37.4 °F 32.8 °F 26.6 °F 65% 30.09 in 10.0 mi WSW 5.8 mph - N/A   Clear
3:54 AM 37.4 °F 31.4 °F 26.6 °F 65% 30.08 in 10.0 mi WSW 8.1 mph - N/A   Clear
4:15 AM 37.4 °F 32.1 °F 26.6 °F 65% 30.09 in 10.0 mi WSW 6.9 mph - N/A   Scattered Clouds
4:35 AM 37.4 °F 32.1 °F 26.6 °F 65% 30.08 in 10.0 mi WSW 6.9 mph - N/A   Mostly Cloudy
4:54 AM 35.6 °F 29.9 °F 26.6 °F 70% 30.09 in 10.0 mi WSW 6.9 mph - N/A   Mostly Cloudy
5:15 AM 33.8 °F 27.7 °F 26.6 °F 75% 30.09 in 10.0 mi SW 6.9 mph - N/A   Mostly Cloudy
5:35 AM 33.8 °F 27.7 °F 26.6 °F 75% 30.10 in 10.0 mi SW 6.9 mph - N/A   Scattered Clouds
5:54 AM 33.8 °F 27.7 °F 26.6 °F 75% 30.11 in 10.0 mi WSW 6.9 mph - N/A   Clear
6:15 AM 37.4 °F 32.1 °F 24.8 °F 60% 30.11 in 10.0 mi West 6.9 mph - N/A   Mostly Cloudy
6:34 AM 37.4 °F 30.8 °F 24.8 °F 60% 30.11 in 10.0 mi West 9.2 mph - N/A   Overcast
6:55 AM 35.6 °F 29.2 °F 24.8 °F 65% 30.11 in 10.0 mi WSW 8.1 mph - N/A   Overcast
7:15 AM 35.6 °F 29.2 °F 24.8 °F 65% 30.11 in 10.0 mi WSW 8.1 mph - N/A   Overcast
7:34 AM 37.4 °F 30.3 °F 23.0 °F 56% 30.12 in 10.0 mi WSW 10.4 mph - N/A   Overcast
7:55 AM 37.4 °F 29.3 °F 21.2 °F 52% 30.12 in 10.0 mi West 12.7 mph - N/A   Mostly Cloudy
8:14 AM 35.6 °F 26.6 °F 21.2 °F 56% 30.13 in 10.0 mi WSW 13.8 mph - N/A   Scattered Clouds
8:35 AM 37.4 °F 29.8 °F 21.2 °F 52% 30.14 in 10.0 mi WSW 11.5 mph - N/A   Clear
8:55 AM 37.4 °F 29.3 °F 21.2 °F 52% 30.14 in 10.0 mi West 12.7 mph 21.9 mph N/A   Clear
9:14 AM 37.4 °F 28.2 °F 19.4 °F 48% 30.15 in 10.0 mi West 16.1 mph 20.7 mph N/A   Clear
9:35 AM 37.4 °F 28.2 °F 19.4 °F 48% 30.16 in 10.0 mi WNW 16.1 mph 24.2 mph N/A   Clear
9:54 AM 37.4 °F 28.2 °F 21.2 °F 52% 30.17 in 10.0 mi West 16.1 mph 24.2 mph N/A   Clear
10:15 AM 37.4 °F 29.8 °F 23.0 °F 56% 30.18 in 10.0 mi West 11.5 mph 23.0 mph N/A   Clear
10:35 AM 35.6 °F 27.5 °F 23.0 °F 60% 30.19 in 10.0 mi West 11.5 mph 25.3 mph N/A   Scattered Clouds
10:55 AM 35.6 °F 25.2 °F 21.2 °F 56% 30.20 in 10.0 mi WNW 18.4 mph 25.3 mph N/A   Scattered Clouds
11:15 AM 35.6 °F 25.5 °F 21.2 °F 56% 30.20 in 10.0 mi West 17.3 mph 25.3 mph N/A   Scattered Clouds
11:34 AM 35.6 °F 25.2 °F 21.2 °F 56% 30.21 in 10.0 mi West 18.4 mph 23.0 mph N/A   Scattered Clouds
11:55 AM 35.6 °F 25.9 °F 21.2 °F 56% 30.22 in 10.0 mi West 16.1 mph 28.8 mph N/A   Scattered Clouds
12:15 PM 35.6 °F 24.0 °F 21.2 °F 56% 30.23 in 10.0 mi West 23.0 mph 29.9 mph N/A   Clear
12:35 PM 33.8 °F 22.5 °F 21.2 °F 60% 30.24 in 10.0 mi West 19.6 mph 29.9 mph N/A   Scattered Clouds
12:55 PM 35.6 °F 25.2 °F 21.2 °F 56% 30.24 in 10.0 mi West 18.4 mph 27.6 mph N/A   Mostly Cloudy
1:14 PM 33.8 °F 23.5 °F 21.2 °F 60% 30.26 in 10.0 mi West 16.1 mph 29.9 mph N/A   Mostly Cloudy
1:35 PM 33.8 °F 23.2 °F 21.2 °F 60% 30.26 in 10.0 mi West 17.3 mph 24.2 mph N/A   Scattered Clouds
1:54 PM 33.8 °F 22.5 °F 21.2 °F 60% 30.28 in 10.0 mi West 19.6 mph 28.8 mph N/A   Mostly Cloudy
2:15 PM 33.8 °F 23.2 °F 21.2 °F 60% 30.29 in 10.0 mi WNW 17.3 mph 26.5 mph N/A   Overcast
2:35 PM 32.0 °F 20.1 °F 19.4 °F 60% 30.30 in 10.0 mi WNW 19.6 mph 27.6 mph N/A   Overcast
2:55 PM 32.0 °F 20.5 °F 21.2 °F 64% 30.31 in 10.0 mi WNW 18.4 mph 25.3 mph N/A   Overcast
3:15 PM 32.0 °F 21.2 °F 21.2 °F 64% 30.31 in 10.0 mi WNW 16.1 mph 20.7 mph N/A   Overcast
3:35 PM 32.0 °F 23.0 °F 21.2 °F 64% 30.32 in 10.0 mi NW 11.5 mph 24.2 mph N/A   Overcast
3:54 PM 32.0 °F 22.1 °F 21.2 °F 64% 30.32 in 10.0 mi WNW 13.8 mph 21.9 mph N/A   Overcast
4:15 PM 32.0 °F 22.1 °F 21.2 °F 64% 30.33 in 10.0 mi NW 13.8 mph 20.7 mph N/A   Overcast
4:34 PM 32.0 °F 21.2 °F 21.2 °F 64% 30.35 in 10.0 mi West 16.1 mph 23.0 mph N/A   Overcast
4:55 PM 32.0 °F 22.1 °F 21.2 °F 64% 30.37 in 10.0 mi WNW 13.8 mph 19.6 mph N/A   Overcast
5:15 PM 32.0 °F 23.6 °F 21.2 °F 64% 30.37 in 10.0 mi WNW 10.4 mph 20.7 mph N/A   Overcast
5:34 PM 32.0 °F 23.6 °F 21.2 °F 64% 30.38 in 10.0 mi WNW 10.4 mph - N/A   Overcast
5:55 PM 32.0 °F 24.8 °F 21.2 °F 64% 30.39 in 10.0 mi WNW 8.1 mph - N/A   Overcast
6:15 PM 30.2 °F 20.8 °F 21.2 °F 69% 30.39 in 10.0 mi NW 11.5 mph - N/A   Overcast
6:34 PM 30.2 °F 24.3 °F 21.2 °F 69% 30.40 in 10.0 mi WNW 5.8 mph - N/A   Overcast
6:55 PM 30.2 °F 24.3 °F 21.2 °F 69% 30.40 in 10.0 mi NW 5.8 mph - N/A   Overcast
7:14 PM 30.2 °F 21.9 °F 21.2 °F 69% 30.41 in 10.0 mi WNW 9.2 mph 16.1 mph N/A   Overcast
7:35 PM 30.2 °F 22.6 °F 21.2 °F 69% 30.42 in 10.0 mi WNW 8.1 mph - N/A   Overcast
7:55 PM 30.2 °F 21.9 °F 21.2 °F 69% 30.43 in 10.0 mi WNW 9.2 mph - N/A   Overcast
8:14 PM 30.2 °F 24.3 °F 21.2 °F 69% 30.43 in 10.0 mi WNW 5.8 mph - N/A   Overcast
8:35 PM 30.2 °F 26.7 °F 21.2 °F 69% 30.43 in 10.0 mi WNW 3.5 mph - N/A   Overcast
8:55 PM 30.2 °F 25.4 °F 21.2 °F 69% 30.43 in 10.0 mi WNW 4.6 mph - N/A   Overcast
9:14 PM 30.2 °F 26.7 °F 21.2 °F 69% 30.44 in 10.0 mi WNW 3.5 mph - N/A   Overcast
9:35 PM 30.2 °F 24.3 °F 21.2 °F 69% 30.45 in 10.0 mi WNW 5.8 mph - N/A   Overcast
9:55 PM 30.2 °F 25.4 °F 21.2 °F 69% 30.45 in 10.0 mi West 4.6 mph - N/A   Overcast
10:15 PM 30.2 °F - 21.2 °F 69% 30.46 in 10.0 mi Calm Calm - N/A   Overcast
10:35 PM 30.2 °F - 21.2 °F 69% 30.46 in 10.0 mi Calm Calm - N/A   Overcast
10:55 PM 30.2 °F - 21.2 °F 69% 30.47 in 10.0 mi Calm Calm - N/A   Overcast
11:15 PM 30.2 °F - 21.2 °F 69% 30.46 in 10.0 mi Calm Calm - N/A   Overcast
11:35 PM 30.2 °F - 21.2 °F 69% 30.46 in 10.0 mi Calm Calm - N/A   Overcast
11:54 PM 30.2 °F - 21.2 °F 69% 30.47 in 10.0 mi Calm Calm - N/A   Overcast